OK1VCF-8 Weather Reports


time (UTC)temp
F
wind
direction
speed
knots
gust
knots
rain 1hr
in
rain 24hr
in
rain mn
in
humidity
%
barometer
mb
20260510001714 45 0 0.0 0.0 0.00 0.00 0.00 84 1019.0
20260510000916 46 0 0.0 0.0 0.00 0.00 0.00 84 1019.0
20260510000120 46 0 0.0 0.0 0.00 0.00 0.00 82 1019.2
20260509235315 46 0 0.0 0.0 0.00 0.00 0.00 82 1019.2
20260509234518 46 0 0.0 0.0 0.00 0.00 0.00 80 1019.2
20260509233731 48 0 0.0 0.0 0.00 0.00 0.00 83 1019.3
20260509232955 46 0 0.0 0.0 0.00 0.00 0.00 82 1019.2
20260509232223 47 0 0.0 0.0 0.00 0.00 0.00 81 1019.2
20260509231221 48 0 0.0 0.0 0.00 0.00 0.00 80 1019.4
20260509230502 47 0 0.0 0.0 0.00 0.00 0.00 82 1019.5
20260509225743 47 0 0.0 0.0 0.00 0.00 0.00 82 1019.4
20260509225024 47 0 0.0 0.0 0.00 0.00 0.00 80 1019.6
20260509224305 48 0 0.0 0.0 0.00 0.00 0.00 80 1019.5
20260509223548 48 0 0.0 0.0 0.00 0.00 0.00 80 1019.6
20260509222830 48 0 0.0 0.0 0.00 0.00 0.00 79 1019.6
20260509222111 48 0 0.0 0.0 0.00 0.00 0.00 80 1019.6
20260509221352 48 0 0.0 0.0 0.00 0.00 0.00 78 1019.6
20260509220634 48 0 0.0 0.0 0.00 0.00 0.00 78 1019.5
20260509215915 49 0 0.0 0.0 0.00 0.00 0.00 78 1019.5
20260509215157 49 0 0.0 0.0 0.00 0.00 0.00 79 1019.6
20260509214438 48 0 0.0 0.0 0.00 0.00 0.00 80 1019.8
20260509212017 50 0 0.0 0.0 0.00 0.00 0.00 78 1019.8
20260509211258 50 0 0.0 0.0 0.00 0.00 0.00 78 1019.9
20260509210539 50 0 0.0 0.0 0.00 0.00 0.00 78 1020.0
20260509205822 50 0 0.0 0.0 0.00 0.00 0.00 78 1019.9
20260509205103 50 0 0.0 0.0 0.00 0.00 0.00 77 1020.0
20260509204345 50 0 0.0 0.0 0.00 0.00 0.00 76 1020.0
20260509203628 50 0 0.0 0.0 0.00 0.00 0.00 76 1019.9
20260509202910 50 0 0.0 0.0 0.00 0.00 0.00 76 1020.0
20260509202152 51 0 0.0 0.0 0.00 0.00 0.00 76 1019.9
20260509201427 50 0 0.0 0.0 0.00 0.00 0.00 76 1020.0
20260509200709 50 0 0.0 0.0 0.00 0.00 0.00 76 1020.0
20260509195950 52 0 0.0 0.0 0.00 0.00 0.00 74 1020.0
20260509195231 52 0 0.0 0.0 0.00 0.00 0.00 74 1019.8
20260509194514 52 0 0.0 0.0 0.00 0.00 0.00 74 1019.8
20260509193756 52 0 0.0 0.0 0.00 0.00 0.00 72 1019.8
20260509192753 52 0 0.0 0.0 0.00 0.00 0.00 72 1019.7
20260509192034 52 0 0.0 0.0 0.00 0.00 0.00 72 1019.7
20260509191317 52 0 0.0 0.0 0.00 0.00 0.00 71 1019.6
20260509190559 53 0 0.0 0.0 0.00 0.00 0.00 70 1019.6
20260509185839 53 0 0.0 0.0 0.00 0.00 0.00 70 1019.5
20260509185120 54 0 0.0 0.0 0.00 0.00 0.00 70 1019.5
20260509184401 54 0 0.0 0.0 0.00 0.00 0.00 70 1019.5
20260509183642 54 0 0.0 0.0 0.00 0.00 0.00 68 1019.4
20260509182924 55 0 0.0 0.0 0.00 0.00 0.00 68 1019.4
20260509182206 56 0 0.0 0.0 0.00 0.00 0.00 66 1019.4
20260509181446 56 0 0.0 0.0 0.00 0.00 0.00 64 1019.4
20260509180728 56 0 0.0 0.0 0.00 0.00 0.00 64 1019.6
20260509180007 57 0 0.0 0.0 0.00 0.00 0.00 63 1019.4
20260509175248 58 0 0.0 0.0 0.00 0.00 0.00 62 1019.4
20260509174531 58 0 0.0 0.0 0.00 0.00 0.00 60 1019.4
20260509173528 58 0 0.0 0.0 0.00 0.00 0.00 58 1019.4
20260509172810 60 0 0.0 0.0 0.00 0.00 0.00 56 1019.4
20260509172052 60 0 0.0 0.0 0.00 0.00 0.00 56 1019.4
20260509171333 61 0 0.0 0.0 0.00 0.00 0.00 54 1019.4
20260509170615 62 0 0.0 0.0 0.00 0.00 0.00 54 1019.4
20260509164431 65 0 0.0 0.0 0.00 0.00 0.00 48 1019.4
20260509163713 68 0 0.0 0.0 0.00 0.00 0.00 44 1019.3
20260509162954 70 0 0.0 0.0 0.00 0.00 0.00 42 1019.5
20260509162235 66 0 0.0 0.0 0.00 0.00 0.00 48 1019.4
20260509161516 64 0 0.0 0.0 0.00 0.00 0.00 50 1019.5
20260509160800 69 0 0.0 0.0 0.00 0.00 0.00 42 1020.0
20260509160040 73 0 0.0 0.0 0.00 0.00 0.00 39 1019.6
20260509155320 66 0 0.0 0.0 0.00 0.00 0.00 48 1019.6
20260509154317 65 0 0.0 0.0 0.00 0.00 0.00 49 1019.6
20260509153558 65 0 0.0 0.0 0.00 0.00 0.00 48 1019.6
20260509152837 65 0 0.0 0.0 0.00 0.00 0.00 48 1019.6
20260509152118 64 0 0.0 0.0 0.00 0.00 0.00 50 1019.7
20260509151357 64 0 0.0 0.0 0.00 0.00 0.00 48 1019.6
20260509150638 74 0 0.0 0.0 0.00 0.00 0.00 36 1019.5
20260509145916 75 0 0.0 0.0 0.00 0.00 0.00 38 1019.5
20260509145155 67 0 0.0 0.0 0.00 0.00 0.00 44 1019.6
20260509144436 65 0 0.0 0.0 0.00 0.00 0.00 46 1019.6
20260509143714 70 0 0.0 0.0 0.00 0.00 0.00 42 1019.6
20260509142952 70 0 0.0 0.0 0.00 0.00 0.00 42 1019.6
20260509142234 66 0 0.0 0.0 0.00 0.00 0.00 46 1019.7
20260509141515 64 0 0.0 0.0 0.00 0.00 0.00 48 1019.8
20260509140757 63 0 0.0 0.0 0.00 0.00 0.00 49 1020.2
20260509140036 66 0 0.0 0.0 0.00 0.00 0.00 46 1019.8
20260509135028 65 0 0.0 0.0 0.00 0.00 0.00 46 1020.0
20260509134309 66 0 0.0 0.0 0.00 0.00 0.00 46 1020.0
20260509133550 67 0 0.0 0.0 0.00 0.00 0.00 46 1019.9
20260509132829 67 0 0.0 0.0 0.00 0.00 0.00 45 1020.1
20260509132110 66 0 0.0 0.0 0.00 0.00 0.00 46 1020.4
20260509131348 67 0 0.0 0.0 0.00 0.00 0.00 44 1020.2
20260509130615 66 0 0.0 0.0 0.00 0.00 0.00 46 1020.4
20260509125838 65 0 0.0 0.0 0.00 0.00 0.00 48 1020.5
20260509125059 65 0 0.0 0.0 0.00 0.00 0.00 48 1020.5
20260509124320 65 0 0.0 0.0 0.00 0.00 0.00 50 1020.5
20260509123544 64 0 0.0 0.0 0.00 0.00 0.00 50 1020.6
20260509122752 64 0 0.0 0.0 0.00 0.00 0.00 50 1020.6
20260509121954 62 0 0.0 0.0 0.00 0.00 0.00 54 1020.6
20260509121154 62 0 0.0 0.0 0.00 0.00 0.00 54 1020.6
20260509120356 62 0 0.0 0.0 0.00 0.00 0.00 54 1020.8
20260509113816 64 0 0.0 0.0 0.00 0.00 0.00 50 1020.9
20260509113033 65 0 0.0 0.0 0.00 0.00 0.00 50 1021.0
20260509112259 66 0 0.0 0.0 0.00 0.00 0.00 48 1021.4
20260509111536 64 0 0.0 0.0 0.00 0.00 0.00 50 1021.1
20260509110817 65 0 0.0 0.0 0.00 0.00 0.00 50 1021.1
20260509110059 66 0 0.0 0.0 0.00 0.00 0.00 48 1021.2
20260509105335 65 0 0.0 0.0 0.00 0.00 0.00 49 1021.2
20260509104617 64 0 0.0 0.0 0.00 0.00 0.00 50 1021.3
20260509103857 64 0 0.0 0.0 0.00 0.00 0.00 48 1021.2
20260509103136 64 0 0.0 0.0 0.00 0.00 0.00 50 1021.3
20260509102416 64 0 0.0 0.0 0.00 0.00 0.00 48 1021.2
20260509101656 65 0 0.0 0.0 0.00 0.00 0.00 48 1021.2
20260509100937 66 0 0.0 0.0 0.00 0.00 0.00 47 1021.3
20260509095932 64 0 0.0 0.0 0.00 0.00 0.00 49 1021.4
20260509095211 65 0 0.0 0.0 0.00 0.00 0.00 48 1021.4
20260509094452 66 0 0.0 0.0 0.00 0.00 0.00 51 1021.3
20260509093732 64 0 0.0 0.0 0.00 0.00 0.00 52 1021.4
20260509093012 64 0 0.0 0.0 0.00 0.00 0.00 52 1021.2
20260509092251 64 0 0.0 0.0 0.00 0.00 0.00 54 1021.3
20260509091531 62 0 0.0 0.0 0.00 0.00 0.00 55 1021.2
20260509090811 62 0 0.0 0.0 0.00 0.00 0.00 58 1021.4
20260509090050 60 0 0.0 0.0 0.00 0.00 0.00 60 1021.2
20260509085328 60 0 0.0 0.0 0.00 0.00 0.00 61 1021.4
20260509084608 59 0 0.0 0.0 0.00 0.00 0.00 62 1021.2
20260509083849 60 0 0.0 0.0 0.00 0.00 0.00 60 1021.4
20260509083128 60 0 0.0 0.0 0.00 0.00 0.00 62 1021.4
20260509082408 60 0 0.0 0.0 0.00 0.00 0.00 63 1021.4
20260509081649 58 0 0.0 0.0 0.00 0.00 0.00 65 1021.4
20260509080643 58 0 0.0 0.0 0.00 0.00 0.00 66 1021.4
20260509075921 58 0 0.0 0.0 0.00 0.00 0.00 68 1021.4
20260509075201 58 0 0.0 0.0 0.00 0.00 0.00 70 1021.4
20260509074442 57 0 0.0 0.0 0.00 0.00 0.00 70 1021.4
20260509073723 57 0 0.0 0.0 0.00 0.00 0.00 70 1021.6
20260509073004 56 0 0.0 0.0 0.00 0.00 0.00 72 1021.5
20260509072243 55 0 0.0 0.0 0.00 0.00 0.00 74 1021.5
20260509071512 55 0 0.0 0.0 0.00 0.00 0.00 73 1021.6
20260509070733 55 0 0.0 0.0 0.00 0.00 0.00 73 1021.6
20260509065950 55 0 0.0 0.0 0.00 0.00 0.00 74 1021.5
20260509065212 54 0 0.0 0.0 0.00 0.00 0.00 74 1021.5
20260509064436 54 0 0.0 0.0 0.00 0.00 0.00 75 1021.4
20260509063657 54 0 0.0 0.0 0.00 0.00 0.00 76 1021.4
20260509062918 54 0 0.0 0.0 0.00 0.00 0.00 77 1021.4
20260509062138 54 0 0.0 0.0 0.00 0.00 0.00 76 1021.4
20260509061105 55 0 0.0 0.0 0.00 0.00 0.00 74 1021.4
20260509060325 54 0 0.0 0.0 0.00 0.00 0.00 75 1021.3
20260509055544 54 0 0.0 0.0 0.00 0.00 0.00 76 1021.4
20260509054818 54 0 0.0 0.0 0.00 0.00 0.00 76 1021.4
20260509054058 53 0 0.0 0.0 0.00 0.00 0.00 77 1021.3
20260509053339 52 0 0.0 0.0 0.00 0.00 0.00 78 1021.3
20260509052620 52 0 0.0 0.0 0.00 0.00 0.00 80 1021.4
20260509051901 52 0 0.0 0.0 0.00 0.00 0.00 80 1021.4
20260509051142 51 0 0.0 0.0 0.00 0.00 0.00 81 1021.2
20260509050425 50 0 0.0 0.0 0.00 0.00 0.00 82 1021.1
20260509045706 51 0 0.0 0.0 0.00 0.00 0.00 82 1021.0
20260509044947 51 0 0.0 0.0 0.00 0.00 0.00 82 1021.0
20260509044230 50 0 0.0 0.0 0.00 0.00 0.00 80 1021.0
20260509043512 55 0 0.0 0.0 0.00 0.00 0.00 74 1020.8
20260509042753 52 0 0.0 0.0 0.00 0.00 0.00 80 1020.9
20260509041744 49 0 0.0 0.0 0.00 0.00 0.00 84 1020.8
20260509041028 50 0 0.0 0.0 0.00 0.00 0.00 84 1020.6
20260509040310 50 0 0.0 0.0 0.00 0.00 0.00 87 1020.6
20260509035552 48 0 0.0 0.0 0.00 0.00 0.00 89 1020.6
20260509034834 47 0 0.0 0.0 0.00 0.00 0.00 89 1020.6
20260509034116 46 0 0.0 0.0 0.00 0.00 0.00 90 1020.8
20260509031932 46 0 0.0 0.0 0.00 0.00 0.00 90 1020.8
20260509031213 46 0 0.0 0.0 0.00 0.00 0.00 90 1020.8
20260509030456 46 0 0.0 0.0 0.00 0.00 0.00 89 1020.8
20260509025736 46 0 0.0 0.0 0.00 0.00 0.00 89 1020.8
20260509025017 46 0 0.0 0.0 0.00 0.00 0.00 88 1021.0
20260509024300 47 0 0.0 0.0 0.00 0.00 0.00 88 1020.9
20260509023541 46 0 0.0 0.0 0.00 0.00 0.00 88 1020.8
20260509022541 47 0 0.0 0.0 0.00 0.00 0.00 88 1020.8
20260509021822 47 0 0.0 0.0 0.00 0.00 0.00 88 1020.8
20260509021103 48 0 0.0 0.0 0.00 0.00 0.00 88 1020.8
20260509020345 47 0 0.0 0.0 0.00 0.00 0.00 88 1020.8
20260509015629 47 0 0.0 0.0 0.00 0.00 0.00 88 1021.0
20260509014910 48 0 0.0 0.0 0.00 0.00 0.00 87 1020.9
20260509014153 48 0 0.0 0.0 0.00 0.00 0.00 88 1021.0
20260509013434 47 0 0.0 0.0 0.00 0.00 0.00 88 1020.8
20260509012711 48 0 0.0 0.0 0.00 0.00 0.00 88 1020.9
20260509011938 48 0 0.0 0.0 0.00 0.00 0.00 88 1020.9
20260509011200 48 0 0.0 0.0 0.00 0.00 0.00 88 1020.9
20260509004934 48 0 0.0 0.0 0.00 0.00 0.00 86 1020.9
20260509004137 48 0 0.0 0.0 0.00 0.00 0.00 86 1020.8
20260509003041 48 0 0.0 0.0 0.00 0.00 0.00 86 1020.8
20260509002241 48 0 0.0 0.0 0.00 0.00 0.00 86 1020.8